Regional Weather Roundup
Issued by NWS

Home | Current Version | Previous Version | Text Only | Print | Product List | Glossary On
Versions: 1 2 3 4 5 6 7 8 9 10 11 12 13 14 15 16 17 18 19 20 21 22 23 24 25 26 27
000
ASUS45 KCYS 231210
RWRWY

WYOMING REGIONAL WEATHER ROUNDUP
NATIONAL WEATHER SERVICE CHEYENNE WY
600 AM MDT WED APR 23 2014

NOTE:  "FAIR" INDICATES FEW OR NO CLOUDS BELOW 12,000 FEET
WITH NO SIGNIFICANT WEATHER AND/OR OBSTRUCTIONS TO VISIBILITY.

WYZ001-231300-
YELLOWSTONE NATIONAL PARK

CITY           SKY/WX    TMP DP  RH WIND       PRES   REMARKS
LK YELLOWSTONE   N/A     25  22  88 VRB6      29.67R WCI  18
6HR MIN TEMP:  25; 6HR MAX TEMP:  31;

W YELLOWSTONE  NOT AVBL

$$
WYZ002>013-054>058-071-098>099-231300-
NORTHERN WYOMING

CITY           SKY/WX    TMP DP  RH WIND       PRES   REMARKS
JACKSON        CLOUDY    32  25  74 S20G25    29.75R WCI  20
CODY           PTCLDY    45  27  49 W17G32    29.53S
GREYBULL       MOCLDY    52  25  35 NW16G22   29.50R
6HR MIN TEMP:  52; 6HR MAX TEMP:  63; 6HR PCP: TRACE;

WORLAND        PTCLDY    48  32  53 NE3       29.51R
6HR MIN TEMP:  47; 6HR MAX TEMP:  62;

SHERIDAN         N/A     36  28  75 SW9         N/A  WCI  29
6HR MIN TEMP:  47; 6HR MAX TEMP:  65;

BUFFALO        MOCLDY    45  37  73 NW23G30   29.51R
6HR MIN TEMP:  45; 6HR MAX TEMP:  61;

GILLETTE       CLOUDY    53  35  50 SW25G32   29.46R
6HR MIN TEMP:  50; 6HR MAX TEMP:  57;

HULETT         PTSUNNY   57  37  47 S17G24    29.45
NEWCASTLE      FAIR      55  36  47 W6        29.52

$$
WYZ014>020-022>026-101>103-231300-
CENTRAL WYOMING

CITY           SKY/WX    TMP DP  RH WIND       PRES   REMARKS
BIG PINEY      PTCLDY    28  19  69 NW14      29.78R WCI  17
6HR MIN TEMP:  27; 6HR MAX TEMP:  38; 6HR PCP: TRACE;

PINEDALE       CLOUDY    28  23  80 NW9       29.79R WCI  20
DUBOIS         FAIR      32  16  51 W25G39    29.63S WCI  19
LANDER         PTCLDY    41  23  48 SW13      29.61R
6HR MIN TEMP:  40; 6HR MAX TEMP:  50; 6HR PCP: TRACE;

RIVERTON       CLEAR     39  24  55 SW8       29.62R WCI  33
6HR MIN TEMP:  38; 6HR MAX TEMP:  53; 6HR PCP:  0.01;

CASPER         MOCLDY    45  28  51 SW17      29.63R
6HR MIN TEMP:  45; 6HR MAX TEMP:  57;

DOUGLAS        CLOUDY    51  34  52 W16G25    29.60R
6HR MIN TEMP:  49; 6HR MAX TEMP:  57;


$$
WYZ021-027>030-104>119-231300-
SOUTHERN WYOMING

CITY           SKY/WX    TMP DP  RH WIND       PRES   REMARKS
EVANSTON       MOCLDY    27  24  89 W12       29.88R WCI  17
6HR MIN TEMP:  27; 6HR MAX TEMP:  33; 6HR PCP:  0.01;

FORT BRIDGER   LGT SNOW  29  28  97 W15       29.88R WCI  18
ROCK SPRINGS   PTCLDY    32  25  75 W23       29.80R WCI  19
6HR MIN TEMP:  32; 6HR MAX TEMP:  40; 6HR PCP: TRACE;

DIXON          CLOUDY    35  34  97 SE5       29.85R WCI  30
RAWLINS        CLOUDY    35  30  82 SW14      29.77R WCI  26
6HR MIN TEMP:  35; 6HR MAX TEMP:  53; 6HR PCP:  0.06;

SARATOGA       LGT SNOW  32  32 100 S5        29.82R WCI  27
LARAMIE        CLOUDY    38  31  76 N10       29.71R WCI  31
6HR MIN TEMP:  38; 6HR MAX TEMP:  52;

CHEYENNE       MOCLDY    51  32  48 W14       29.62R
6HR MIN TEMP:  49; 6HR MAX TEMP:  55;

TORRINGTON     CLOUDY    47  41  80 W12       29.54R
6HR MIN TEMP:  46; 6HR MAX TEMP:  53;

PINE BLUFFS    FAIR      43  36  75 CALM      29.59R

$$



USA.gov is the U.S. government's official web portal to all federal, state and local government web resources and services.